This demonstration page uses our WeatherBlox Daily Observations layout. Learn more.

Left ArrowRight Arrow

40.97296, -117.73568

Hourly Observations for January 5, 2022

Temp ( °F °C ) Dew Point ( °F °C ) Humidity (%) Winds ( mph kmh ) Pressure ( in mb ) Visibility ( mi km ) Precip ( " mm )
1:56 am 01:56 Cloudy 43 6.1 33 0.6 68 68 WSW 15 24 30.08 1019 10 16 0.00 0.00
2:56 am 02:56 Partly Cloudy 43 6.1 33 0.6 68 68 WSW 15 24 30.07 1018 10 16 0.00 0.00
3:56 am 03:56 Mostly Clear 44 6.7 33 0.6 65 65 WSW 13 20 30.07 1018 10 16 0.00 0.00
4:56 am 04:56 Cloudy 44 6.7 33 0.6 65 65 SW 15 24 30.08 1019 10 16 0.00 0.00
5:56 am 05:56 Clear 44 6.7 34 1.1 68 68 WSW 18 30 30.09 1019 10 16 0.00 0.00
6:56 am 06:56 Partly Cloudy 44 6.7 34 1.1 68 68 SW 20 31 30.09 1019 10 16 0.00 0.00
7:56 am 07:56 Mostly Sunny 45 7.2 34 1.1 66 66 SSW 13 20 30.09 1019 10 16 0.00 0.00
8:56 am 08:56 Cloudy 44 6.7 34 1.1 68 68 S 6 9 30.13 1020 10 16 0.00 0.00
9:56 am 09:56 Cloudy 47 8.3 35 1.7 63 63 WSW 10 17 30.14 1021 10 16 0.00 0.00
10:56 am 10:56 Sunny 49 9.4 36 2.2 61 61 W 26 43 30.11 1020 10 16 0.00 0.00
11:56 am 11:56 Cloudy 49 9.4 37 2.8 64 64 SW 17 28 30.11 1020 10 16 0.00 0.00
12:56 pm 12:56 Cloudy 50 10 37 2.8 61 61 SW 22 35 30.09 1019 10 16 0.00 0.00
1:56 pm 13:56 Partly Cloudy 51 10.6 38 3.3 61 61 SW 14 22 30.10 1019 10 16 0.00 0.00
2:56 pm 14:56 Mostly Cloudy 51 10.6 39 3.9 64 64 SW 16 26 30.09 1019 10 16 0.00 0.00
3:56 pm 15:56 Mostly Sunny 50 10 37 2.8 61 61 SW 6 9 30.09 1019 10 16 0.00 0.00
4:56 pm 16:56 Clear 47 8.3 36 2.2 66 66 SW 10 17 30.09 1019 10 16 0.00 0.00
5:56 pm 17:56 Clear 47 8.3 36 2.2 66 66 WSW 10 17 30.10 1019 10 16 0.00 0.00
6:56 pm 18:56 Cloudy 47 8.3 35 1.7 63 63 SSW 5 7 30.11 1020 10 16 0.00 0.00
7:56 pm 19:56 Partly Cloudy 45 7.2 36 2.2 71 71 S 6 9 30.13 1020 10 16 0.00 0.00
8:56 pm 20:56 Cloudy 45 7.2 36 2.2 71 71 SW 8 13 30.12 1020 10 16 0.00 0.00
9:56 pm 21:56 Cloudy 46 7.8 36 2.2 68 68 S 7 11 30.09 1019 10 16 0.00 0.00
10:56 pm 22:56 Cloudy 45 7.2 36 2.2 71 71 SW 7 11 30.10 1019 10 16 0.00 0.00
11:56 pm 23:56 Partly Cloudy 42 5.6 35 1.7 76 76 S 8 13 30.09 1019 10 16 0.00 0.00

Powered by AerisWeather